リニア彗星

C/2006 X1 ( LINEAR )

English version
Home page
Updated on April 3, 2008

---------------------------------------------------------------------

・ プロフィール

発見日 2006年12月11日
発見光度 19.2等
発見者 Lincoln Laboratory Near-Earth Asteroid Research project

・ 軌道要素

The following orbital elements are taken from MPC 59875:

Epoch 2006 Mar. 6.0 TT = JDT 2453800.5
T 2006 Mar. 5.8231 TT                                   MPC
q   6.126320             (2000.0)            P               Q
z  +0.000143       Peri.  101.2923      +0.7477392      +0.1103278
 +/-0.000047       Node   255.2495      -0.2589579      +0.9564691
e   0.999125       Incl.   42.6156      +0.6114139      +0.2701751
From 95 observations 2006 Dec. 11-2007 Feb. 15, mean residual 0".5.

・ 光度変化

        m1 = 6.5 + 5 logΔ + 10.0 log r

---------------------------------------------------------------------

軌道要素はMPCのEphemerides and Orbital Elementsに掲載されたものです。
光度グラフはComet for Windowsで作成したものです。

---------------------------------------------------------------------

Copyright(C) Seiichi Yoshida (comet@aerith.net). All rights reserved.